AirNav   Everest Fuels
 
 1117 users online  

2E2 Sharpe's Strip Airport
Emmett, Michigan, USA

GOING TO EMMETT?


FAA INFORMATION EFFECTIVE 20 MAY 2021

Location

FAA Identifier: 2E2
Lat/Long: 42-57-05.7900N 082-46-33.1150W
42-57.096500N 082-46.551917W
42.9516083,-82.7758653
(estimated)
Elevation: 781 ft. / 238 m (estimated)
From city: 2 miles S of EMMETT, MI
Time zone: UTC -4 (UTC -5 during Standard Time)
Zip code: 48041

Airport Operations

Airport use: Open to the public
Activation date: 11/2003
Control tower: no
ARTCC: CLEVELAND CENTER
FSS: LANSING FLIGHT SERVICE STATION
NOTAMs facility: LAN (NOTAM-D service available)
Attendance: IREG
Wind indicator: yes
Segmented circle: no

Airport Communications

CTAF: 122.9
WX AWOS-3 at PHN (11 nm E): 118.375 (810-364-7787)

Nearby radio navigation aids

NDB name  Hdg/Dist  Freq  Var  ID
PHURN317/10.233207WPH .--. ....

Airport Services

Runway Information

Runway 18/36

Dimensions: 2700 x 90 ft. / 823 x 27 m
Surface: turf, in fair condition
Runway edge markings: RWY 36 & DSPLCD THLD MKD WITH 3 FT YELLOW CONES.
RUNWAY 18  RUNWAY 36
Latitude: 42-57.318500N42-56.874500N
Longitude: 082-46.564167W082-46.539667W
Elevation: 779.0 ft.780.0 ft.
Traffic pattern: leftleft
Runway heading: 178 true358 true
Displaced threshold: 700 ft.no
Obstructions: 27 ft. pline, marked, 100 ft. from runway, 23 ft. left of centerline, 3:1 slope to clear
APCH RATIO 0:1 TO DSPLCD THLD, +46 FT TREES 0 FT DSTC, 96 FT R.
28 ft. trees, 115 ft. right of centerline

Airport Ownership and Management from official FAA records

Ownership: Privately-owned
Owner: VERNON SHARPE
11371 HILL ROAD
RILEY, MI 48041
Phone 810-384-6668
Manager: VERNON SHARPE
11371 HILL ROAD
RILEY, MI 48041
Phone 810-384-6668

Airport Operational Statistics

Aircraft based on the field: 1
Single engine airplanes: 1
    
Aircraft operations: 100/year *
50% transient general aviation
50% local general aviation
* for 12-month period ending 31 December 2018

Additional Remarks

DEER & TURKEYS INVOF ARPT.
FOR IFR CLEARANCE CTC CLEVELAND ARTCC (ZOB) 126.52/285.52 OR CALL ZOB 440-774-0224.
CTC ARPT MGR FOR RWY CONDS WHEN SNOW COVERED 810-384-6668.

Instrument Procedures

There are no published instrument procedures at 2E2.

Some nearby airports with instrument procedures:

KPHN - St Clair County International Airport (11 nm E)
D98 - Romeo State Airport (13 nm SW)
57D - Ray Community Airport (14 nm S)
KMTC - Selfridge Air National Guard Base (20 nm S)
D95 - Dupont-Lapeer Airport (23 nm W)
 
Loc | Ops | Rwys | IFR | FBO | Links
Com | Nav | Svcs | Stats | Notes
Area around 2E2 (Sharpe's Strip Airport)
 
Road maps at: MapQuest Bing Google
 
Aerial photo
WARNING: Photo may not be current or correct
Aerial photo of 2E2 (Sharpe's Strip Airport)
Photo by Vic Adamko
Taken in the Summer of 2004

Do you have a better or more recent aerial photo of Sharpe's Strip Airport that you would like to share? If so, please send us your photo.

 
Sectional chart

 
Airport distance calculator
Flying to Sharpe's Strip Airport? Find the distance to fly.

From to 2E2

Sunrise and sunset
Times for 15-Jun-2021
 Local
(UTC-4)
 Zulu
(UTC)
Morning civil twilight05:1709:17
Sunrise05:5209:52
Sunset21:1101:11
Evening civil twilight21:4601:46

Current date and time
Zulu (UTC)  15-Jun-2021 23:59:14
Local (UTC-4)  15-Jun-2021 19:59:14
 
METAR
KPHN 
12nm E 
152355Z AUTO 35007KT 320V020 10SM CLR 16/02 A3005 RMK AO2
KMTC 
20nm S 
152256Z 02014G19KT 10SM FEW055 SCT250 22/03 A3002 RMK AO2A SLP169 T02150032 $
CYZR 
21nm E 
152300Z AUTO 36017KT 9SM CLR 17/08 A3004 RMK SLP175 DENSITY ALT 900FT
KD95 
23nm W 
152335Z AUTO 01006KT 10SM CLR 20/04 A3005 RMK AO2 T02020042
TAF
KMTC 
20nm S 
152000Z 1520/1623 36012G18KT 9999 FEW045 SCT250 510053 QNH2999INS BECMG 1523/1524 35007KT 9999 FEW150 QNH3004INS TX24/1617Z TN10/1610Z
CYZR 
21nm E 
151938Z 1520/1602 01018G28KT P6SM FEW050 BECMG 1522/1524 01012KT RMK FCST BASED ON AUTO OBS. NXT FCST WILL BE ISSUED AT 160745Z
NOTAMs
Click for the latest NOTAMs
NOTAMs are issued by the DoD/FAA and will open in a separate window not controlled by AirNav.

 

 
 

Would you like to see your business listed on this page?

 If your business provides an interesting product or service to pilots, flight crews, aircraft, or users of the Sharpe's Strip Airport, you should consider listing it here.  To start the listing process, click on the button below
 
Add a business
 

Other Pages about Sharpe's Strip Airport

Page from the Michigan Airport Directory (PDF)
 
Update a link
 
Copyright © AirNav, LLC. All rights reserved. Privacy Policy  Contact